Погода в Оханске

Погода в Оханске : погода сейчас, прогноз погоды и архив. Всё, что Вы хотите узнать о погоде в Оханске!

Поиск расширенной информации на нашем сайте:

Другие новости

Новости СМИ2

Главная страница сайта

Новости сайта

02.10.2013

Напоминаем, что на нашем новом сайте вы можете получить высокодетализированные прогнозы погоды по пунктам России, СНГ и мира (включающие важные для авиации метеовеличины, такие как направление и скорость ветра, видимость, явления погоды, количество и форма облачности, нижняя и верхняя граница облачности), а также ознакомиться с разнообразными материалами по авиационной метеорологии и подборкой полезных ссылок на эту тему.

Сайт Метеоцентр.Азия посвящён разработке технологий оптимизации авиаметеорологического обслуживания, включая проектирование и перспективное создание нескольких автоматизированных авиаметеорологических систем:
- система выпуска высокодетальных прогностических карт явлений погоды для нижнего воздушного пространства по России и ближнему зарубежью;
- система верификации прогнозов TAF (выпускаемых синоптиками официальных АМСГ РФ и ближнего зарубежья) и AUTOTAF (выпускаемых сайтом Метеоцентр.Азия) - выявление ошибок, онлайн-сопоставление с фактической погодой METAR, автоматическое внесение коррективов в прогнозы при резком отклонении фактической погоды от прогноза, подсчёт оправдываемости прогнозов по элементам и в целом;
- система обработки, анализа и отображения авиаметеорологической информации для применения провайдерами метеорологической информации.

Рекомендуем: Детский трикотаж оптом из иваново valeriya-ivanovo.ru.

Погода в Оханске - сегодня

Время (UTC), дата Ветер
(°,м/с) 
Видим.   Явления Облачность Т
(°С)
Тd
(°С)
f(%) Тe
(°С)
Pmin
(гПа)
dP
(гПа)
Po
(мм)
O2
(г/м3)
Тmin Tmax R s Состояние
почвы
18 24.04.17 060 (СВ) 10 км  слаб. дождь  10/8 300 м средняя 
[Frnb|As op]
+4.7 +3.3 91 +4  1001.8  -3.7  737  291           
21 24.04.17 070 (В) 10 км  слаб. дождь  10/8 300 м средняя 
[Frnb|As op]
+5 +3.7 91 +4  997.8  -3.9  734  290           
00 25.04.17 160 (Ю) 20000 м  {дождь}  10/8 600 м средняя 
[Sc|As trans]
+5.5 +4.3 92 +5  995.5  -2.2  732  288           
03 25.04.17 180 (Ю) 10 км  слаб. дождь{туман}  10/8 300 м средняя 
[Frnb|As op]
+6.1 +4.8 91 +5  996.4  0.9  733  288  +4.6      мокрая 
06 25.04.17 190 (Ю) 6-11{14}  10 км  слаб. морось{дождь}  10/10 300 м 
[St]
+4.2 +2.6 89 +2  999.8  3.2  735  291  +4.2         
09 25.04.17 210 (ЮЗ) 7-13{14}  20000 м  {морось}  10/10 600 м 
[Sc]
+4 +0.9 80 +1  1006.4  6.4  740  294           
12 25.04.17 220 (ЮЗ) 4-11{14}  20000 м  в посл. час дождь{морось}  10/10 600 м 
[Sc]
+4.5 +1 78 +3  1011.1  4.6  743  294           
15 25.04.17 240 (ЮЗ) 4{12}  20000 м    10/8 600 м кучево-дожд., средняя 
[Cb cap|As op]
+3.9 +0.6 79 +2  1014.1  2.9  746  296    +6.1  0.3     
18 25.04.17 230 (ЮЗ) 20000 м    8/3 600 м средняя 
[Sc|Ac trans]
+2.5 -0.1 83 +2  1016.5  2.2  747  298           
21 25.04.17 150 (ЮВ) 20000 м    3/3 2000 м средняя 
[Ac trans]
+0.6 -0.8 90 +1  1017.1  0.5  748  301           
00 26.04.17 210 (ЮЗ) 20000 м    9/3 600 м средняя, верхняя 
[Cu med, cong|Ac trans|Ci fib]
-0.6 -1.7 92 -1  1018.1  0.8  748  302           
03 26.04.17 240 (ЮЗ) 0500 м  туман  10/10 2000 м 
[As trans]
-0.3 -1.3 93 -1  1020.2  2.1  750  303  -1.9        влажная 
06 26.04.17 270 (З) 20000 м  {туман}  10/10 600 м 
[Cu Sc]
+4.6 +1.2 79 +5  1020.8  0.9  750  297           
09 26.04.17 250 (З) 20000 м    9/9 600 м кучево-дожд. 
[Cb calv]
+4.5 +0.9 77 +3  1021.8  0.9  751  298           
12 26.04.17 340 (С) 20000 м  в посл. час ливневой дождь  10/10 600 м кучево-дожд. 
[Cb calv]
+5.4 +0.8 72 +4  1022.7  752  297           
15 26.04.17 310 (СЗ) 20000 м    4/4 600 м 
[Cu med, cong]
+6.8 -0.5 60 +8  1022.9  0.3  752  296    +7.8  0.4     
18 26.04.17 260 (З) 20000 м    ясно 
+3.3 -2.3 67 +3  1024.5  1.3  753  300           
21 26.04.17 200 (Ю) 20000 м    ясно 
-0.7 -2 91 -2  1024.9  0.1  753  304           
00 27.04.17 180 (Ю) 20000 м    ясно 
-1.5 -2.6 92 -2  1024.9  0.1  753  305           
03 27.04.17 190 (Ю) 20000 м    8/5 2000 м средняя, верхняя 
[Ac trans|Ci sp]
+1.2 -1.8 80 1023.2  -1.4  752  302  -1.8        замёрзшая 
06 27.04.17 180 (Ю) 4{10}  20000 м    8/5 600 м средняя 
[Cu med, cong|Ac As]
+8.4 -2 48 +7  1020.6  -2.1  750  294           
09 27.04.17 200 (Ю) 6-11{12}  20000 м    6/3 1000 м средняя, верхняя 
[Cu med, cong|Ac cast|Ci fib]
+13.5 -0.3 39 +13  1019  -1.2  750  288           
12 27.04.17 220 (ЮЗ) 6-10{14}  20000 м    8/3 1000 м средняя, верхняя 
[Cu med, cong|Ac cast|Ci sp]
+15.7 +0.5 36 +15  1018.2  -0.6  749  285           
15 27.04.17 220 (ЮЗ) 3{11}  20000 м    10/8 600 м средняя 
[Sc diur, vesp|Ac As]
+13.8 +2.2 45 +14  1018.3  749  287    +16.4       
18 27.04.17 230 (ЮЗ) 20000 м    6/6 2000 м средняя 
[Ac As]
+13 +1.4 45 +13  1019.1  0.7  750  288           
Время (UTC), дата Ветер
(°,м/с) 
Видим.   Явления Облачность Т
(°С)
Тd
(°С)
f(%) Тe
(°С)
Pmin
(гПа)
dP
(гПа)
Po
(мм)
O2
(г/м3)
Тmin Tmax R s Состояние
почвы

Для получения пояснительной информации подведите курсор к названию столбца.

ПОГОДА в Оханске - архив

Всё, что Вы хотите узнать о погоде в Оханске - удобно и подробно!

Выберите нужную дату (начиная с 1 января 2015* года) и нажмите кнопку "Найти".
Будут отображены архивные сводки погоды по пункту Оханск, начиная с указанной даты.


Отображать данные в формате CSV (для использования в таблицах Excel)


Внимание! Наш архив погоды предназначен исключительно для личного некоммерческого использования в познавательных целях. Если Вам необходимы официальные справки о состоянии погоды (для производственных, юридических, коммерческих и т.п. целей), обращайтесь в органы Росгидромета.

*Примечание: данная дата относится к архиву по метеостанциям СССР (Россия, СНГ, Балтия).
Архив по метеостанциям Зарубежной Европы и Азии (кроме Китая) хранится 10 дней, по другим регионам земного шара (Китай, Африка, Америка, Австралия, Океания) - 1 день.

Оханск - район местоположения метеостанции


Название, широта, долгота, высота метеостанции:
Оханск 57.7°ш. 55.4°д. 163 м над ур. моря [Российская Федерация]

Дополнительная информация

В oтличие oт бoльшинства пoгoдных сайтoв мы публикуем пoдрoбную метеoинфoрмацию в детальнoм прoфессиoнальнoм фoрмате.

Характеристики температуры и влажнoсти вoздуха измеряются на высoте 2 м в тени вдали oт зданий и деревьев.
Скoрoсть ветра измеряется на высoте 10 м (на урoвне рoста челoвека скoрoсть ветра ниже в 1.5-2 раза). Если метеoстанция нахoдится в гoрoде или в лесу, тo скoрoсть ветра занижена на 2-4 м/с пo сравнению с oткрытым местoм. Скoрoсть ветра над акватoриями крупных рек и oзёр, а также на вершинах хoлмoв на 2-5 м/с выше, чем в oбычных услoвиях.
Атмoсфернoе давление в разных тoчках местнoсти мoжет значительнo oтличаться oт давления на метеoстанции, в зависимoсти oт услoвий рельефа (при пoдъёме на 10 м давление пoнижается примернo на 1 мм рт.ст.).